Wind_Speed
7 8 9 9 9 9 10 11 11 13 14 12 12 13 12 10 10 12 13 13 14 15 15 16 16 15 15 16 16 15 16 18 19 19 20 22 23 23 24 25 26 26 26 27 26 24 21 19 18 16 15 15 15 14 14 13 13 13 13 14 14 15 14 14 14 12 11 9 8 9 11 11 10 9 10 13 16 17 20 24 25 25 25 25 26
6 7 8 8 9 9 10 11 11 13 13 11 10 11 10 9 9 10 12 13 13 15 15 14 15 14 14 15 15 14 15 16 17 17 19 20 21 22 22 23 24 25 26 27 27 26 23 19 16 14 13 13 14 14 14 13 13 13 13 13 13 13 13 13 14 13 12 10 9 8 10 11 10 8 8 11 13 13 16 20 23 24 24 24 25
5 7 7 7 8 9 9 10 11 12 13 12 11 11 9 8 7 9 11 12 12 14 14 13 13 13 13 14 14 14 14 14 15 17 18 19 20 21 21 22 23 24 24 25 26 26 26 25 22 19 18 18 18 18 17 16 16 16 16 14 13 13 13 14 16 17 15 12 10 9 9 9 9 9 8 9 11 11 12 16 20 22 23 23 23
4 5 6 6 7 8 9 10 11 12 13 12 11 11 9 7 6 8 9 10 12 13 13 13 13 12 12 12 13 14 14 14 14 16 17 17 18 19 19 20 21 22 23 23 24 26 26 26 24 22 21 21 20 19 18 17 17 16 16 15 14 14 14 14 16 18 17 14 11 10 8 7 8 9 9 9 10 9 10 13 17 20 22 22 23
3 4 5 5 6 7 8 10 11 12 13 13 10 10 8 6 6 7 9 10 11 12 12 13 13 12 12 11 11 12 13 13 13 14 15 14 15 16 17 18 19 20 20 22 23 25 25 26 24 23 22 22 21 20 18 17 15 15 15 15 14 14 14 15 16 17 17 16 14 12 9 7 7 7 8 9 11 10 9 11 14 18 21 22 23
2 3 3 4 5 6 7 9 11 12 12 13 10 8 8 5 4 6 8 9 10 12 12 12 13 13 12 11 10 10 11 11 11 12 12 12 12 13 14 15 16 17 18 20 22 23 25 26 25 25 26 26 25 23 21 19 16 15 15 15 13 12 13 14 15 15 16 16 16 14 11 9 7 6 6 8 10 11 11 12 13 15 19 20 21
1 1 2 3 4 5 7 8 10 11 12 13 12 8 7 5 2 5 7 9 10 11 12 13 14 14 13 12 11 10 10 10 10 10 10 10 11 12 13 13 14 15 16 18 20 22 24 25 25 26 27 27 27 26 26 24 22 21 19 17 14 12 12 13 13 14 15 15 15 15 16 15 12 9 7 6 8 10 12 12 13 14 16 17 19
1 1 1 2 3 4 6 7 8 10 11 12 13 11 7 5 1 4 7 8 9 10 11 12 13 13 13 13 12 11 10 10 10 10 10 10 11 11 12 12 12 13 14 16 18 20 22 23 24 24 25 25 25 25 26 26 26 26 25 23 19 15 13 13 13 13 14 15 16 16 16 16 15 13 10 7 8 9 11 12 13 14 14 15 16
2 2 2 2 3 4 5 6 7 8 9 11 12 13 10 6 4 6 9 9 9 9 10 10 11 12 12 12 12 12 12 13 13 13 12 12 11 11 11 11 11 11 12 14 16 18 19 20 21 22 22 22 22 22 23 23 24 26 27 27 26 22 18 15 14 14 14 15 16 15 14 15 16 15 13 10 8 8 9 11 13 13 12 12 14
3 3 2 2 2 3 4 5 6 6 8 10 11 12 13 10 9 10 11 10 9 8 8 9 10 10 10 11 11 12 14 15 15 14 14 13 12 11 10 10 10 10 10 11 13 14 15 16 17 17 17 18 20 21 21 20 20 22 25 27 28 28 25 23 21 19 17 16 16 16 16 17 16 15 14 12 9 8 8 9 11 10 10 11 13
4 3 2 2 2 2 3 4 5 5 7 8 10 11 12 12 11 11 11 11 10 9 7 7 9 10 9 9 10 11 13 14 14 13 13 14 13 11 10 10 10 10 10 10 10 11 11 12 13 14 15 16 17 18 19 17 17 18 21 23 26 28 27 27 26 25 22 19 17 16 16 16 16 14 13 11 10 10 9 8 8 9 10 11 11
5 4 3 3 2 1 2 3 4 4 5 7 9 10 11 11 12 11 11 11 11 10 8 8 8 9 9 8 9 10 11 12 12 12 12 12 12 11 10 9 9 9 9 9 9 9 9 10 11 13 15 15 15 16 16 16 15 16 18 20 22 25 25 24 24 25 24 22 19 17 15 13 12 12 11 10 9 9 8 7 8 9 11 10 9
5 4 3 3 2 1 1 2 3 3 4 7 8 9 9 10 11 11 11 11 10 10 10 9 8 8 8 8 9 9 10 10 11 12 12 11 11 11 10 9 8 8 8 8 8 8 8 9 9 12 14 15 15 15 14 13 13 14 16 17 19 21 21 21 21 22 24 23 22 20 16 12 10 10 10 10 7 6 5 6 8 8 9 8 8
6 4 3 3 2 2 1 1 2 3 4 6 7 8 9 10 10 11 10 10 10 11 11 11 10 9 8 7 7 8 8 9 9 11 12 11 10 11 10 10 9 8 7 7 7 8 9 9 10 11 12 14 15 14 11 10 11 13 15 16 17 18 18 18 19 19 21 22 23 22 18 13 10 9 9 10 8 5 5 6 7 7 7 8 8
8 5 4 4 3 2 2 2 1 2 4 5 6 8 9 9 9 9 9 10 10 11 11 11 11 11 10 8 7 7 7 6 7 10 11 10 9 10 10 10 10 9 9 8 8 9 10 10 10 11 11 12 13 12 10 9 10 12 15 16 16 16 16 18 18 17 18 21 22 22 19 14 12 10 9 10 8 6 6 6 6 6 5 7 7
8 6 5 4 4 3 2 2 2 3 4 4 5 7 8 8 9 8 8 9 10 10 11 11 11 11 11 10 8 7 7 5 6 9 10 9 8 8 9 10 11 11 11 10 10 10 10 10 10 10 10 11 10 9 8 7 9 11 14 15 15 14 14 16 15 14 15 18 21 22 20 16 14 13 13 11 8 6 7 6 6 5 3 4 5
9 7 6 5 4 3 3 3 3 3 4 3 3 6 7 7 8 8 7 8 9 9 10 10 11 10 11 11 10 9 8 7 6 7 8 7 6 7 8 9 10 12 13 12 12 11 11 11 10 9 9 9 8 7 6 6 8 11 13 15 15 14 12 12 12 11 12 15 20 24 25 23 21 19 18 15 10 6 6 4 5 4 3 1 4
10 8 6 5 5 4 3 4 3 3 4 3 2 4 5 6 6 6 6 6 8 9 9 9 10 10 10 11 11 10 9 8 7 7 7 6 5 6 7 8 10 11 13 13 12 12 12 12 12 11 10 9 6 5 5 5 6 8 10 13 15 14 13 11 9 8 8 11 18 25 29 30 29 28 26 23 19 14 11 11 10 6 2 1 4
10 8 7 6 5 4 4 4 4 4 4 3 3 4 4 4 5 5 5 6 7 8 8 8 8 9 10 10 10 10 10 10 9 8 7 6 5 5 6 6 8 10 11 11 11 12 12 13 13 13 12 11 9 8 7 6 6 6 8 11 13 14 13 11 8 8 8 10 16 21 25 26 27 28 28 28 27 25 23 22 18 13 7 4 5
11 9 7 6 5 5 5 5 5 4 4 3 4 4 3 3 3 4 4 6 7 7 8 7 7 8 9 9 9 10 11 11 10 9 7 6 5 5 4 5 7 8 8 8 8 9 10 11 12 13 12 12 12 11 11 10 9 8 8 10 12 12 11 10 9 9 9 11 13 16 19 20 21 22 23 24 25 26 26 25 24 20 14 9 7
11 10 8 6 6 6 6 6 5 5 5 5 6 6 6 5 5 5 5 6 7 7 8 7 7 7 8 8 8 10 11 12 12 10 9 8 7 6 6 6 8 8 7 8 8 9 10 11 12 11 10 10 11 11 12 11 11 10 10 10 9 9 9 9 9 8 9 10 12 14 16 16 17 17 19 19 20 21 23 24 25 23 18 14 12
11 10 8 7 7 7 7 7 6 6 6 6 7 7 7 6 6 6 6 7 7 7 7 7 7 7 7 7 7 9 10 11 11 11 10 10 9 8 8 9 9 8 8 9 11 11 12 12 12 11 9 9 9 10 10 9 10 11 10 8 7 7 7 8 8 8 8 10 11 13 15 15 15 15 15 15 16 17 18 20 23 24 21 17 15
10 10 9 8 8 8 8 8 8 8 7 7 7 6 6 5 4 4 5 6 6 6 7 7 7 7 7 6 7 8 8 9 9 9 9 9 9 9 9 9 9 8 9 10 11 11 12 12 12 11 9 8 8 7 7 7 8 9 8 7 6 7 7 7 7 7 8 10 12 14 15 15 15 15 15 14 13 13 14 17 21 23 20 17 15
10 10 9 9 9 9 9 9 9 9 9 8 7 6 6 5 3 2 3 5 6 6 6 6 6 6 7 7 7 7 7 8 8 8 8 7 7 8 8 8 9 8 9 9 10 10 10 10 10 10 9 8 7 6 5 6 7 7 6 6 6 6 7 7 7 8 8 10 12 15 16 16 15 16 16 14 11 11 13 17 20 21 19 17 15
11 10 11 11 11 11 11 11 11 11 11 10 8 6 6 5 4 2 1 4 6 6 6 6 6 6 7 8 8 7 7 7 7 7 7 6 6 7 7 8 8 8 8 9 9 9 9 9 8 8 8 7 6 4 5 6 6 5 5 5 5 6 7 8 8 8 9 11 12 14 16 16 16 16 15 13 12 14 15 17 19 20 20 18 16
11 11 12 13 13 13 14 14 14 13 12 10 8 7 5 4 3 2 1 2 4 6 6 5 6 7 7 8 8 8 7 7 6 6 5 5 5 6 7 8 8 8 8 8 8 8 7 7 6 6 7 6 6 5 5 5 5 5 5 6 6 7 8 9 8 9 10 11 12 13 14 15 15 14 13 13 14 16 17 16 16 19 21 19 17
12 13 14 15 15 15 16 15 14 13 12 10 9 7 6 4 3 3 2 1 3 4 4 5 6 6 7 8 8 8 8 7 7 6 5 4 5 6 7 7 7 7 8 7 7 6 6 6 6 6 6 6 6 6 5 4 4 5 6 7 8 9 9 9 9 10 10 11 11 12 12 13 12 12 12 13 15 16 16 15 16 18 19 19 20
14 14 16 16 17 17 16 15 14 12 11 10 9 8 7 5 4 3 2 1 3 4 3 4 5 6 7 7 7 7 8 8 8 7 6 5 6 6 7 7 7 7 8 8 7 6 5 5 5 5 5 6 6 7 7 6 6 6 7 7 9 9 9 9 9 10 10 10 11 11 11 10 10 10 11 13 14 15 14 15 17 17 16 17 20
15 16 18 18 18 18 17 15 14 12 10 10 10 9 8 6 5 5 3 2 4 5 5 5 5 6 6 7 7 7 8 9 9 9 8 7 7 7 8 8 8 9 9 7 6 4 4 4 4 5 5 6 7 9 10 9 8 7 6 6 7 8 8 8 9 9 9 9 10 10 10 10 9 9 10 11 12 12 12 14 16 16 15 16 19
18 19 20 20 20 19 17 16 15 13 11 11 11 11 10 9 8 7 5 4 5 7 6 6 6 6 5 6 7 7 8 9 9 9 9 9 8 8 9 9 9 9 8 6 4 4 5 6 8 9 9 9 9 10 11 11 11 10 9 7 6 6 7 8 9 9 9 9 9 9 10 10 10 10 10 10 10 9 9 12 14 14 16 18 19
20 21 21 21 20 19 18 17 16 14 13 12 11 10 10 10 10 9 7 6 7 7 7 7 8 7 6 6 7 8 8 9 9 8 8 8 8 8 9 9 8 9 7 5 4 7 8 9 11 12 11 11 12 12 12 12 12 12 11 10 8 7 7 7 7 7 7 8 8 8 9 10 10 10 9 9 9 7 7 9 11 13 16 18 20
20 21 21 21 21 20 19 18 17 16 15 14 12 11 10 10 10 10 9 8 8 8 8 8 8 7 7 7 7 8 9 9 8 8 7 8 8 8 9 9 9 9 8 6 7 11 12 12 12 13 13 13 14 13 13 13 13 12 12 11 11 11 9 8 6 4 4 5 7 7 8 9 10 10 9 9 8 7 6 7 8 10 13 15 18
20 21 21 21 22 21 20 19 18 16 15 14 12 11 10 9 8 8 8 8 9 9 9 9 8 8 7 7 8 8 8 8 8 8 8 9 9 9 10 10 11 10 8 8 11 14 14 14 14 14 14 15 15 14 13 14 14 13 13 13 13 12 11 9 6 4 4 5 5 6 7 7 8 9 8 8 7 6 5 6 6 7 9 10 13
19 20 20 21 21 21 21 19 18 16 15 13 12 11 10 9 7 6 6 7 8 9 10 10 9 8 8 8 8 8 8 8 8 8 9 10 10 10 11 11 11 11 11 12 14 15 15 15 15 14 14 15 15 14 14 14 14 14 14 14 13 12 11 9 7 7 8 7 6 6 6 6 6 7 8 7 7 7 7 7 6 6 7 8 9
20 20 21 21 21 20 20 19 18 16 15 13 12 11 11 10 8 7 6 6 7 9 10 10 10 9 8 8 8 8 7 8 9 9 10 11 11 11 11 11 12 13 13 14 15 15 15 15 15 15 14 14 14 14 14 14 13 13 14 14 13 12 10 9 9 9 9 9 9 9 7 6 5 6 6 6 6 7 8 9 8 7 7 7 8
20 22 22 22 22 21 20 19 18 16 15 14 13 12 12 11 10 10 9 8 8 8 9 11 11 10 9 9 8 8 8 9 10 10 10 11 12 11 10 11 13 14 15 16 16 16 16 15 15 14 14 14 14 14 14 14 13 13 13 13 13 12 11 11 10 10 9 10 10 10 9 8 7 7 6 5 5 6 8 9 9 9 8 7 7
21 22 23 23 22 22 20 19 18 16 15 15 14 14 13 13 12 12 11 10 9 9 10 11 11 11 11 10 9 8 8 9 9 10 10 11 11 10 10 12 14 14 15 16 16 15 16 15 15 14 14 14 13 14 13 14 14 13 13 13 13 13 13 12 11 10 10 10 11 11 10 10 9 8 8 8 7 7 7 8 8 8 8 7 6
20 22 23 23 23 22 21 20 19 17 16 17 17 16 15 15 13 13 12 11 10 10 11 11 11 11 11 10 10 9 8 8 8 9 10 10 9 9 10 11 12 13 14 16 15 15 15 15 14 14 13 13 13 13 13 13 13 13 13 14 14 14 13 12 11 11 11 11 12 12 12 11 10 9 9 9 9 8 7 7 7 8 8 7 6
17 19 22 24 24 22 21 21 20 18 18 19 19 18 17 16 15 14 14 13 13 12 12 12 12 12 11 10 10 9 8 8 8 8 8 7 7 8 9 10 11 12 13 14 14 14 15 15 14 14 13 13 13 12 12 13 13 13 13 13 13 13 13 13 12 12 12 12 13 13 12 12 11 10 9 9 10 9 8 8 8 8 8 7 7
17 17 21 24 25 23 22 21 21 20 18 19 20 20 19 17 16 15 14 14 14 14 13 12 12 11 11 10 9 8 7 7 7 7 6 5 5 6 7 8 9 10 11 11 12 12 13 14 14 14 14 13 13 12 12 12 12 12 12 12 13 13 14 14 13 13 13 13 13 13 13 13 12 11 10 10 9 9 9 8 8 8 8 8 8
19 19 21 23 25 24 23 23 22 21 18 18 19 20 19 17 16 15 15 15 15 14 13 12 12 11 11 10 9 8 7 5 5 5 5 4 3 3 4 5 6 8 9 10 11 11 12 13 14 14 14 13 13 12 12 12 12 12 12 12 12 13 14 14 14 13 12 13 13 13 14 14 13 12 12 11 10 9 9 9 8 8 8 8 7
22 22 23 24 25 25 25 24 23 21 19 18 18 18 17 16 16 15 15 16 16 14 13 13 13 12 12 11 10 9 7 4 3 3 3 3 1 1 2 3 4 6 6 8 9 10 11 11 12 12 13 13 13 12 12 12 12 12 12 12 12 12 13 14 14 13 12 12 13 14 14 15 14 14 13 11 10 10 10 10 9 9 8 8 8
25 24 25 25 26 26 25 23 23 22 20 18 17 17 16 15 14 14 14 16 16 14 13 13 13 14 13 12 11 10 7 4 3 2 1 2 2 1 1 2 3 4 5 6 8 9 9 9 10 11 12 12 12 11 11 11 12 12 12 12 11 12 12 13 13 12 12 12 13 14 15 15 15 15 13 12 11 11 11 12 11 10 10 10 10
26 26 26 27 27 26 24 23 23 21 19 17 16 16 16 15 13 13 13 15 15 14 12 12 12 14 14 14 12 9 6 4 3 3 2 2 3 2 0 1 2 2 3 4 6 7 7 7 9 10 10 11 11 11 10 10 11 11 11 11 11 11 12 12 12 12 12 12 13 14 15 15 15 15 15 14 13 12 13 14 13 12 12 11 10
27 27 28 27 27 27 26 24 22 19 17 17 18 18 17 16 14 13 13 14 14 13 12 11 12 13 14 13 11 7 5 4 4 4 3 3 3 2 1 1 1 2 2 3 4 5 6 6 7 8 9 9 9 9 9 10 10 10 11 11 11 11 12 13 13 13 12 11 12 14 15 15 15 15 15 15 15 14 15 15 15 14 13 12 12
28 28 28 28 28 27 26 24 21 19 18 19 21 20 19 17 16 15 14 14 14 13 13 13 13 13 12 11 9 7 6 6 5 4 3 3 3 2 1 0 1 1 2 2 3 4 4 4 5 6 7 7 8 8 8 9 9 10 10 10 10 11 12 13 13 13 12 11 12 13 14 14 14 15 15 16 15 16 16 17 17 16 16 15 14
28 29 29 28 28 26 25 23 22 20 19 20 21 21 20 18 18 17 16 15 15 15 15 14 14 13 12 10 9 8 8 7 6 5 4 3 4 3 2 1 1 1 1 1 1 2 2 2 3 4 5 6 7 7 8 8 9 9 10 10 11 11 12 12 12 12 12 11 12 12 13 13 14 14 14 15 15 16 16 17 17 17 17 16 16
29 28 28 28 27 25 24 23 22 21 20 20 21 22 21 20 19 19 18 17 16 17 17 16 15 14 13 11 10 10 10 9 8 7 6 4 5 4 3 2 2 1 1 1 1 2 2 2 2 3 4 4 5 6 7 7 8 9 10 10 10 10 11 11 11 11 11 11 12 12 12 12 13 13 14 14 15 16 16 17 17 17 17 17 16
28 28 27 27 26 24 23 23 21 20 20 21 22 22 22 21 21 20 19 19 18 18 18 18 17 16 15 14 13 12 12 11 10 9 7 6 6 6 5 4 3 2 1 1 1 2 2 1 1 2 2 3 4 5 6 7 8 8 9 9 9 10 10 10 10 11 10 10 11 11 12 12 12 13 14 14 14 15 15 16 17 17 17 17 17
27 26 26 26 25 23 23 22 20 19 19 20 21 21 22 22 21 20 21 20 19 18 18 19 19 18 18 17 15 14 14 12 11 10 8 7 7 7 6 5 4 2 1 0 1 1 1 1 1 2 1 2 3 4 5 6 7 7 8 8 8 9 9 9 10 10 10 10 10 11 11 11 11 12 13 14 14 14 15 16 16 16 16 17 17
25 25 24 24 23 22 22 21 20 19 19 20 20 20 21 20 19 20 20 20 19 18 18 18 19 19 19 18 17 16 15 14 13 11 10 10 9 9 8 6 4 3 2 1 1 1 1 0 1 1 1 1 2 3 3 4 5 6 6 7 7 8 8 8 9 9 9 9 9 10 10 10 10 11 12 13 13 13 14 15 16 16 17 17 17
Wind_Direction
14 17 22 26 31 38 43 45 41 40 54 76 83 81 78 62 49 50 49 47 46 42 41 43 48 53 59 69 82 88 86 84 83 78 72 69 65 61 57 56 55 52 50 49 49 51 56 65 70 73 69 61 55 51 45 38 34 34 34 35 34 33 34 36 39 43 49 56 64 69 71 70 64 60 60 55 53 53 53 53 55 58 59 57 57
9 17 22 24 31 40 43 44 40 38 50 68 83 88 83 63 53 52 49 49 48 46 45 46 51 57 63 70 78 89 92 89 85 78 73 70 67 63 59 57 56 56 55 54 51 49 51 56 60 61 56 47 40 39 36 33 36 42 47 46 42 38 38 41 47 54 57 59 67 76 75 70 64 60 60 55 51 53 55 53 53 57 59 55 53
8 16 21 24 32 40 43 43 40 39 45 60 84 98 88 63 55 54 52 53 53 49 48 50 54 61 68 71 75 84 91 90 85 78 74 70 66 62 58 55 56 58 60 60 57 53 53 54 56 57 56 54 51 50 50 48 50 54 59 59 55 53 56 62 69 72 71 71 78 84 78 68 60 59 65 61 53 53 56 54 51 53 57 55 51
15 16 20 27 34 39 44 44 41 40 44 58 86 107 95 66 55 56 58 60 59 54 52 53 57 64 72 73 75 81 86 87 84 80 75 70 66 62 57 54 54 58 63 64 60 57 56 55 56 57 59 59 58 56 55 53 54 58 62 59 55 58 66 74 80 81 80 82 89 92 87 80 69 65 71 74 67 64 61 55 49 49 53 53 50
25 20 23 31 35 39 44 45 43 42 44 55 84 113 106 74 53 54 63 69 65 60 58 57 56 61 69 74 75 76 80 83 83 80 74 66 62 59 55 53 54 58 65 67 63 61 61 60 59 59 60 59 58 56 54 52 51 52 55 55 56 62 70 76 82 87 88 90 96 100 98 94 79 69 79 82 75 74 72 62 52 49 49 49 49
32 28 31 37 38 39 43 46 46 45 46 52 70 110 122 97 50 45 62 75 74 66 62 60 57 56 61 68 70 70 74 78 79 77 72 62 55 51 48 48 51 58 67 70 67 66 67 67 66 66 66 65 63 61 59 58 55 53 54 58 64 73 78 82 85 88 91 93 97 97 91 88 83 81 97 89 67 66 70 66 59 55 51 48 46
56 47 45 48 47 43 43 45 47 48 49 52 59 86 125 136 60 28 53 76 79 71 66 64 60 58 60 66 67 66 67 70 70 68 64 57 50 45 44 45 48 56 68 74 72 71 71 71 71 71 71 70 69 67 64 62 61 59 59 60 64 72 77 81 85 88 92 93 94 90 83 81 83 87 103 103 75 67 66 64 62 61 56 51 46
162 121 83 61 56 51 45 45 47 49 53 56 57 65 93 132 113 28 51 75 80 73 70 68 64 62 63 65 68 68 67 63 58 53 49 46 42 38 40 44 50 59 71 76 76 75 74 73 73 73 73 71 69 68 65 63 62 61 59 58 60 65 70 73 76 81 88 91 90 89 85 81 81 84 92 98 90 79 69 63 64 62 57 55 48
183 160 123 78 62 55 46 45 46 49 56 58 57 58 66 80 73 51 62 75 78 75 74 72 69 66 64 63 63 63 60 56 51 46 42 40 39 37 39 46 55 65 76 80 79 77 76 73 72 73 71 68 65 63 60 58 58 60 58 56 57 60 66 71 73 76 84 89 87 87 87 82 79 80 82 84 87 85 72 64 65 63 58 58 56
180 166 145 104 77 55 45 47 45 49 58 60 59 58 59 64 65 65 71 76 75 76 81 82 77 70 65 62 59 56 54 52 48 43 41 43 42 41 44 54 64 73 83 86 82 78 74 68 67 68 67 64 63 61 57 52 51 56 58 57 56 58 63 66 68 70 75 80 81 83 85 81 76 75 75 76 82 83 74 68 67 61 51 57 63
172 168 149 119 102 55 45 51 48 50 61 65 63 60 61 63 66 69 74 74 70 71 80 88 83 73 66 62 58 56 53 49 43 36 35 41 45 46 49 59 71 81 90 91 84 78 71 62 58 58 58 61 64 64 60 55 50 51 56 58 57 58 61 61 61 62 65 68 71 76 80 79 78 77 73 72 78 79 77 79 71 51 40 51 62
177 176 152 130 134 94 56 56 57 58 67 73 70 64 63 65 66 68 71 71 69 69 74 83 83 76 69 62 58 56 51 45 37 27 24 31 40 46 52 62 75 85 91 90 83 75 63 54 53 54 50 52 64 71 69 63 55 51 55 60 60 59 58 56 55 56 57 59 61 63 67 71 77 81 73 67 80 90 86 82 70 50 41 51 61
189 189 159 141 156 137 88 74 75 73 78 81 77 70 66 64 63 63 64 65 67 68 71 77 82 81 74 65 61 57 50 41 31 23 19 22 29 38 48 60 74 84 88 86 79 66 52 51 61 63 55 52 62 77 78 68 58 53 55 60 63 62 59 54 53 53 52 54 55 55 57 60 68 76 65 55 78 113 101 76 63 44 36 49 59
194 194 174 166 180 163 129 121 106 93 92 89 83 75 69 64 62 59 58 61 63 65 67 70 76 79 74 67 64 61 54 40 27 22 20 19 24 31 40 53 63 71 76 74 70 61 53 55 64 68 65 61 65 74 78 68 57 53 55 59 61 61 58 53 51 51 50 53 55 54 55 58 62 63 50 46 69 113 114 85 63 39 40 60 62
198 196 183 181 189 183 165 164 146 115 108 100 88 79 69 64 63 60 59 59 59 62 64 64 68 71 71 70 67 68 65 46 26 24 21 22 31 34 38 49 55 59 63 63 63 64 61 61 64 66 69 68 66 69 72 64 53 48 52 59 59 57 56 53 49 46 47 51 55 55 57 65 70 64 49 45 64 107 126 100 65 45 59 78 71
201 195 186 189 196 196 185 180 172 143 131 114 93 82 70 62 60 56 56 58 58 60 63 64 65 67 68 68 65 69 75 59 32 26 21 24 40 44 44 52 56 58 61 60 62 66 65 65 66 68 72 70 63 60 58 48 40 40 46 53 54 53 57 57 53 48 46 52 57 58 61 71 79 75 64 55 66 118 141 113 75 57 58 77 75
202 195 191 197 202 199 190 190 191 169 155 138 97 85 74 62 55 49 50 54 56 57 60 63 66 67 68 68 64 64 70 65 48 34 29 36 51 53 54 57 58 59 60 59 57 59 61 61 62 65 71 69 60 51 39 22 26 34 39 43 45 49 58 64 63 59 51 55 65 69 72 77 81 80 77 74 82 125 147 103 55 11 334 46 88
201 199 198 202 204 201 191 194 200 191 182 171 117 98 85 66 55 47 44 48 52 54 54 59 65 67 68 68 66 63 63 64 57 48 50 59 62 61 63 65 63 63 62 59 56 55 56 56 55 54 58 60 54 42 24 6 13 28 34 35 39 46 57 66 75 73 58 61 75 79 77 77 77 76 76 74 76 80 74 58 44 18 343 134 119
201 201 201 202 202 200 193 195 201 200 198 182 135 113 92 66 53 47 47 49 51 53 54 57 63 68 69 69 69 68 65 65 64 62 67 72 66 67 71 69 67 68 65 61 58 56 57 55 52 49 48 49 46 42 35 22 17 31 34 30 36 48 56 61 72 77 65 64 77 82 80 77 75 73 72 69 67 65 60 54 50 45 53 93 138
200 200 203 203 200 198 195 197 201 200 195 174 137 120 102 79 66 59 59 57 55 57 62 62 64 71 75 73 72 72 69 68 69 70 71 71 67 71 69 61 64 65 62 58 55 55 55 54 52 46 41 38 36 35 35 31 30 38 33 27 41 58 63 61 68 75 71 67 74 80 81 80 77 74 71 68 64 60 55 50 46 45 50 64 94
199 201 205 200 193 195 195 197 201 198 189 168 141 126 115 101 84 68 60 59 60 63 68 68 67 74 80 81 78 77 75 73 73 74 72 69 67 64 58 56 60 59 54 51 49 48 47 46 45 41 33 31 29 27 30 31 29 33 33 37 56 72 71 68 75 80 80 79 78 77 77 77 76 74 72 70 64 57 50 44 39 40 48 60 73
201 201 199 191 188 193 194 196 200 197 185 169 149 133 116 97 77 58 51 56 63 65 65 67 70 75 84 87 86 85 83 79 76 74 69 65 59 54 51 54 56 51 48 48 47 45 42 40 38 33 28 28 28 26 29 31 30 35 44 55 72 81 78 79 85 88 90 89 80 72 69 68 68 68 69 69 64 57 50 41 33 33 43 59 72
202 197 192 189 191 194 194 197 201 197 185 174 162 145 126 108 84 54 42 49 63 69 69 69 71 77 86 92 93 92 90 84 78 71 65 58 50 44 43 46 46 40 38 44 45 41 39 37 33 28 26 27 28 27 28 33 41 52 61 65 75 86 87 83 84 91 97 92 78 70 67 63 60 59 61 62 62 59 51 41 33 32 39 55 70
198 194 191 194 195 196 196 197 200 196 187 182 178 165 149 142 134 88 39 41 52 63 72 75 78 82 88 93 96 97 95 88 79 70 62 54 42 35 33 34 34 31 32 41 43 38 36 36 30 26 25 27 28 30 36 45 57 68 70 67 76 88 87 80 80 90 98 90 76 70 70 67 61 58 59 62 65 64 55 46 41 42 48 58 68
198 195 195 199 200 197 195 195 196 194 189 186 183 174 165 165 170 173 43 36 43 53 68 78 83 85 88 92 95 97 96 91 82 71 63 54 40 31 26 28 31 31 32 37 39 34 32 31 27 25 26 29 33 43 59 67 72 77 78 76 76 78 80 83 82 83 87 86 79 74 76 77 73 68 67 71 72 69 66 63 59 59 63 68 74
202 200 201 203 201 198 197 199 199 197 195 191 184 177 177 186 199 218 265 21 41 53 66 80 85 87 91 92 94 97 100 97 90 79 67 57 45 31 20 22 28 30 30 32 31 28 26 25 24 23 24 31 40 50 61 73 81 86 87 85 78 76 79 83 80 76 81 86 86 83 82 85 87 85 79 75 73 72 74 72 67 65 67 72 79
208 205 204 203 200 200 204 207 207 205 203 198 190 185 187 195 213 230 247 337 48 63 74 83 86 88 91 94 97 102 103 99 94 88 76 56 42 29 18 20 26 27 29 30 26 23 23 23 25 27 29 37 46 52 63 81 88 83 80 78 78 75 74 77 80 81 83 85 89 93 94 96 98 95 87 79 76 77 75 67 60 61 64 67 73
214 210 206 203 203 205 209 212 214 213 208 199 194 196 197 195 198 206 210 150 97 96 95 94 92 90 90 93 98 103 102 98 92 85 76 59 42 30 24 28 31 30 32 31 24 21 25 27 33 43 50 56 60 62 65 68 67 69 72 74 77 78 78 83 87 86 86 90 95 100 104 104 99 95 94 90 85 78 66 52 50 54 59 64 68
216 211 207 206 207 209 210 213 217 216 207 197 196 200 200 194 186 181 175 146 121 117 116 108 102 99 98 102 107 108 105 100 89 78 69 58 47 37 35 36 35 35 36 33 25 28 45 57 63 67 67 67 67 64 62 59 59 64 73 84 92 96 96 94 90 87 90 95 96 96 99 100 102 107 109 103 91 79 62 46 45 53 59 64 67
214 210 209 209 210 210 211 213 215 213 208 203 203 203 198 188 178 170 163 150 128 120 122 120 110 104 107 115 118 112 101 91 81 71 61 53 45 39 37 37 37 38 39 35 33 52 67 69 67 65 62 63 66 65 63 61 61 62 67 78 93 94 87 83 80 80 83 86 89 95 99 101 105 112 115 110 100 87 66 49 48 56 63 67 70
214 211 211 212 212 212 213 214 214 212 209 208 209 208 202 189 176 165 158 149 131 120 122 121 114 112 116 119 115 106 94 85 77 69 61 54 47 44 43 41 40 42 37 23 32 51 57 59 61 61 58 57 60 61 61 61 60 60 61 65 71 73 73 73 70 66 68 76 83 92 101 105 109 112 115 117 113 98 73 55 51 59 66 68 70
218 215 214 214 212 213 214 215 215 214 212 211 209 207 206 201 187 171 160 150 134 126 125 120 116 120 124 120 111 101 92 86 79 72 67 60 53 53 53 50 48 47 39 31 46 56 55 54 57 59 57 56 57 58 61 61 61 60 59 60 61 60 58 59 57 47 49 65 73 80 90 101 110 116 120 125 124 113 91 68 58 62 69 71 70
220 218 218 215 213 212 214 214 215 216 215 214 210 204 204 210 206 189 171 156 143 136 132 125 124 129 129 121 112 103 95 90 84 76 71 64 58 56 56 55 56 54 47 46 55 60 57 53 53 54 54 55 54 53 55 59 60 59 57 55 55 53 52 51 49 41 43 53 61 71 79 90 103 113 118 124 124 119 108 90 76 71 72 72 71
221 221 222 220 217 215 214 213 214 215 214 213 210 204 200 204 211 209 190 168 153 145 138 133 134 138 134 125 117 108 100 94 88 81 75 70 66 61 59 61 63 63 59 56 58 60 59 56 54 52 52 55 56 53 52 55 57 57 57 55 54 54 54 54 53 52 54 56 59 67 75 83 96 102 101 101 103 104 105 106 103 90 75 69 70
220 221 222 224 222 220 217 214 212 211 211 209 207 205 201 197 196 198 194 179 164 153 145 141 141 142 140 133 125 116 108 101 94 87 81 77 73 66 63 66 69 67 64 60 58 58 58 57 55 53 51 53 57 56 54 54 54 57 58 57 57 58 57 57 57 58 60 62 62 63 65 69 78 83 84 86 88 88 91 98 104 104 94 79 73
219 219 220 222 223 222 220 216 211 210 210 207 204 205 204 199 194 191 187 181 172 162 152 148 147 146 145 140 133 126 117 107 99 93 87 81 78 74 70 70 70 68 66 63 59 57 56 55 54 53 51 51 52 54 55 55 54 55 56 55 56 57 56 55 55 54 57 63 64 62 59 59 62 66 69 73 72 71 78 89 101 113 114 101 85
220 220 220 221 221 221 221 218 213 210 210 208 206 205 203 201 199 195 189 183 178 171 163 158 155 153 150 146 141 134 125 114 107 102 96 89 87 85 79 74 70 68 66 64 61 57 55 54 53 52 51 51 50 50 51 52 53 53 53 52 51 51 51 52 52 53 56 62 65 62 59 57 58 62 66 71 73 69 71 80 95 109 115 113 108
224 225 224 224 222 220 220 218 213 209 209 209 207 207 205 203 200 196 191 188 185 179 173 168 164 161 158 153 149 145 137 127 120 111 103 98 95 91 83 75 71 67 66 65 62 59 56 55 54 52 52 53 52 51 50 50 50 50 50 50 48 47 46 47 50 53 57 61 62 61 59 58 58 60 66 72 75 72 73 82 95 109 118 124 128
222 227 227 228 226 223 220 219 215 210 208 209 208 208 207 205 202 196 192 191 191 186 181 176 173 170 168 164 162 160 152 141 130 118 107 102 97 90 83 76 71 66 64 64 63 60 57 55 54 53 53 53 53 53 52 50 48 48 49 50 50 48 47 47 48 52 57 60 61 60 59 57 55 55 61 70 72 71 73 80 91 103 113 119 122
217 225 225 224 226 226 222 220 218 213 210 209 210 209 209 208 206 200 195 195 195 191 186 183 180 178 178 177 177 176 166 151 140 130 119 109 97 87 81 75 69 66 64 63 63 62 58 56 54 52 52 53 53 53 53 51 49 47 46 47 48 48 47 45 46 50 55 59 60 60 59 58 54 52 55 62 66 66 67 69 74 84 95 103 110
217 227 226 220 221 225 224 221 220 218 213 209 210 211 210 208 206 202 200 200 199 194 189 188 186 183 183 186 191 193 187 177 171 159 140 125 106 89 83 75 69 67 64 63 62 61 58 56 54 51 50 51 52 52 53 53 50 46 44 43 45 46 46 44 44 49 54 58 59 60 60 59 56 52 50 53 57 61 64 63 64 70 81 93 104
218 226 226 218 217 221 222 221 221 220 214 209 208 209 210 207 203 202 202 201 199 195 191 188 186 187 191 198 208 214 214 217 220 197 163 153 159 111 82 75 71 68 67 67 67 65 62 59 57 54 52 52 52 52 53 54 52 49 46 44 45 48 48 45 43 45 52 57 58 58 58 59 58 54 51 49 52 57 61 61 62 66 74 84 93
224 225 226 220 216 218 220 221 221 220 216 211 208 208 209 209 208 207 205 199 194 193 194 192 190 192 198 209 219 224 226 230 244 248 224 206 211 211 65 67 73 71 72 75 75 74 70 66 62 58 55 53 52 51 51 53 54 52 49 47 47 50 52 49 44 43 48 53 56 57 56 56 56 56 54 52 51 54 58 60 62 66 71 76 82
228 225 224 220 218 218 219 221 223 223 221 218 214 213 214 216 216 216 213 206 197 193 194 198 199 199 204 215 224 228 229 234 251 274 275 236 218 225 299 46 70 75 80 83 83 85 84 75 65 61 57 54 52 49 48 51 54 53 52 50 49 53 57 56 51 47 47 49 54 56 55 54 54 55 56 55 54 55 57 58 61 66 72 75 78
227 223 222 220 218 217 218 219 222 224 226 224 222 220 220 222 224 223 221 217 210 202 199 203 205 205 210 221 230 235 243 250 257 268 263 224 207 216 263 25 60 78 89 91 92 99 100 86 69 62 57 54 53 52 49 51 54 53 53 52 50 52 58 58 55 51 48 47 52 56 54 51 52 53 54 55 55 56 57 57 58 63 69 72 73
225 221 221 220 217 215 215 216 217 220 223 224 224 224 223 226 229 229 226 223 221 216 211 211 211 210 215 226 235 241 249 255 260 267 258 217 197 206 227 176 75 71 86 98 100 103 102 87 68 61 57 55 56 55 54 55 56 53 53 51 48 50 55 57 55 52 49 47 51 56 54 51 50 51 52 54 55 56 58 57 56 57 62 66 68
224 221 221 220 218 215 215 216 217 220 223 224 225 226 227 228 231 231 229 227 227 225 223 221 219 219 224 233 239 244 250 256 259 262 255 222 204 212 224 204 180 62 53 57 68 85 96 90 70 65 62 59 59 59 57 57 58 55 53 50 47 47 53 57 57 53 49 48 50 54 56 54 52 52 53 54 56 58 58 58 56 56 57 60 63
224 222 221 220 219 218 218 219 220 224 227 226 225 227 229 231 232 232 231 230 231 230 228 226 225 226 230 237 242 245 249 252 252 251 247 229 214 217 222 215 214 236 356 3 18 62 96 107 84 74 70 65 62 62 59 59 60 58 54 50 48 47 50 54 56 53 50 48 49 52 54 54 55 55 55 55 57 59 61 61 59 58 58 59 62
225 223 222 221 221 221 222 222 222 227 230 228 226 227 230 232 232 233 233 234 236 234 230 227 227 228 232 237 240 241 243 247 247 246 242 232 222 220 219 217 219 230 295 351 37 77 97 98 73 82 89 80 71 68 64 62 64 62 57 53 50 49 49 50 51 51 49 49 50 51 50 50 53 56 57 56 56 59 62 64 64 63 63 63 63
226 225 224 223 223 224 224 223 225 230 233 230 227 229 231 233 233 233 234 236 237 235 232 229 229 230 233 237 240 241 243 247 249 248 244 237 228 223 218 215 216 223 241 252 98 86 79 55 60 86 113 107 85 76 69 66 67 66 61 56 53 52 51 49 48 46 46 48 51 51 49 47 50 57 59 58 56 58 62 66 67 66 66 67 66
225 224 224 224 225 225 224 225 227 231 233 232 231 231 233 234 234 233 234 236 237 235 233 231 230 231 235 239 242 245 248 250 251 251 248 242 235 227 221 217 214 217 227 229 128 100 78 28 66 91 160 164 120 95 79 72 71 69 64 58 54 54 53 52 49 46 44 46 50 51 48 46 49 56 61 61 58 57 61 66 67 67 67 67 67
Height
1527 1527 1526 1526 1525 1524 1523 1522 1520 1519 1519 1518 1518 1517 1516 1514 1513 1512 1511 1509 1508 1506 1505 1504 1503 1501 1500 1499 1498 1497 1496 1495 1493 1492 1491 1489 1488 1486 1485 1484 1482 1480 1478 1477 1475 1474 1472 1471 1470 1469 1468 1467 1466 1465 1464 1463 1462 1461 1460 1458 1457 1456 1455 1454 1453 1453 1453 1452 1451 1450 1450 1450 1450 1449 1449 1450 1450 1449 1449 1447 1446 1445 1445 1444 1443
1528 1527 1527 1526 1526 1524 1523 1522 1521 1520 1519 1519 1519 1518 1517 1515 1514 1513 1511 1510 1509 1507 1506 1505 1504 1503 1502 1501 1500 1499 1497 1496 1495 1494 1493 1492 1490 1489 1488 1486 1484 1483 1481 1479 1478 1476 1474 1473 1472 1471 1470 1469 1467 1467 1466 1464 1463 1462 1461 1460 1459 1457 1456 1455 1454 1454 1453 1453 1453 1452 1452 1452 1452 1451 1452 1452 1452 1451 1451 1450 1449 1448 1447 1446 1445
1528 1528 1527 1527 1526 1525 1524 1523 1522 1521 1520 1520 1519 1519 1518 1516 1515 1514 1513 1511 1510 1509 1508 1507 1505 1504 1503 1502 1501 1500 1499 1498 1497 1496 1495 1494 1492 1491 1490 1489 1487 1485 1483 1482 1481 1479 1477 1475 1474 1473 1472 1470 1469 1468 1467 1466 1464 1463 1462 1461 1460 1459 1458 1456 1455 1455 1454 1454 1454 1454 1454 1453 1453 1453 1453 1454 1454 1453 1453 1452 1452 1451 1449 1448 1446
1528 1528 1527 1527 1527 1526 1525 1524 1523 1522 1521 1521 1520 1520 1519 1517 1516 1515 1514 1513 1511 1510 1509 1508 1507 1506 1504 1504 1503 1502 1501 1500 1499 1498 1497 1496 1494 1493 1492 1491 1489 1488 1486 1485 1484 1482 1480 1478 1477 1475 1474 1473 1471 1470 1469 1468 1466 1465 1464 1463 1462 1461 1460 1458 1457 1456 1456 1455 1455 1455 1455 1455 1455 1454 1455 1455 1455 1455 1455 1454 1453 1452 1451 1449 1448
1529 1528 1528 1527 1527 1527 1526 1525 1524 1523 1522 1521 1521 1520 1520 1518 1517 1516 1515 1514 1513 1512 1511 1509 1508 1507 1506 1505 1504 1503 1502 1502 1501 1499 1499 1498 1496 1495 1494 1493 1492 1490 1489 1488 1486 1485 1483 1481 1480 1479 1477 1476 1474 1472 1471 1470 1469 1467 1466 1466 1465 1463 1462 1461 1460 1459 1458 1457 1456 1456 1456 1456 1456 1456 1456 1456 1456 1456 1456 1455 1455 1454 1452 1451 1450
1529 1528 1528 1528 1528 1527 1526 1526 1525 1524 1523 1522 1522 1521 1521 1519 1518 1517 1516 1515 1514 1513 1512 1511 1509 1508 1507 1506 1505 1505 1504 1503 1502 1501 1500 1499 1498 1497 1496 1495 1494 1493 1491 1490 1489 1487 1486 1484 1483 1481 1480 1478 1477 1475 1474 1472 1471 1469 1468 1467 1467 1466 1465 1463 1462 1461 1460 1459 1459 1459 1458 1458 1458 1457 1457 1458 1458 1458 1457 1456 1456 1455 1454 1453 1453
1529 1529 1529 1528 1528 1528 1527 1527 1526 1525 1524 1523 1523 1522 1521 1520 1519 1518 1518 1517 1515 1514 1513 1512 1511 1510 1509 1508 1507 1506 1505 1504 1503 1502 1501 1501 1500 1499 1498 1497 1496 1495 1494 1492 1491 1490 1488 1487 1485 1484 1482 1481 1480 1478 1477 1475 1474 1472 1470 1469 1468 1467 1466 1465 1465 1463 1462 1462 1461 1461 1461 1460 1459 1459 1459 1459 1459 1459 1458 1457 1457 1456 1456 1455 1455
1530 1529 1529 1529 1529 1528 1528 1528 1527 1526 1525 1524 1524 1523 1522 1521 1520 1519 1519 1518 1517 1516 1515 1514 1513 1512 1510 1509 1508 1507 1507 1506 1505 1504 1503 1502 1501 1500 1499 1498 1497 1496 1495 1494 1493 1492 1491 1489 1488 1486 1485 1484 1482 1481 1480 1478 1477 1475 1473 1471 1470 1468 1467 1467 1466 1465 1464 1463 1463 1463 1462 1462 1461 1461 1461 1461 1460 1460 1459 1459 1458 1458 1457 1457 1456
1530 1530 1530 1529 1529 1529 1529 1528 1528 1527 1527 1526 1525 1524 1523 1522 1521 1520 1520 1519 1518 1517 1516 1515 1514 1513 1512 1511 1510 1509 1507 1506 1506 1505 1504 1503 1502 1501 1500 1499 1498 1498 1497 1496 1495 1494 1493 1492 1490 1489 1488 1486 1485 1483 1482 1481 1479 1477 1476 1474 1472 1470 1469 1468 1467 1466 1466 1465 1465 1464 1464 1463 1463 1463 1463 1462 1461 1461 1461 1460 1460 1459 1459 1458 1458
1531 1530 1530 1530 1530 1530 1530 1529 1529 1528 1528 1527 1526 1525 1524 1523 1522 1521 1521 1520 1519 1518 1518 1517 1515 1514 1513 1512 1511 1510 1508 1507 1507 1506 1506 1505 1504 1502 1501 1500 1499 1499 1498 1498 1497 1496 1495 1494 1493 1492 1490 1489 1487 1486 1484 1483 1481 1480 1478 1477 1475 1474 1472 1470 1469 1468 1468 1467 1467 1466 1465 1465 1465 1464 1464 1463 1463 1463 1462 1462 1461 1461 1460 1460 1459
1531 1531 1531 1531 1531 1531 1531 1530 1530 1529 1529 1528 1527 1526 1525 1524 1523 1523 1522 1521 1520 1519 1519 1518 1517 1516 1515 1513 1512 1511 1510 1509 1508 1508 1507 1506 1505 1504 1503 1502 1501 1500 1499 1499 1498 1497 1497 1496 1495 1493 1492 1491 1490 1489 1487 1485 1483 1482 1480 1479 1478 1476 1475 1473 1472 1471 1470 1469 1468 1467 1466 1466 1466 1465 1465 1465 1465 1464 1464 1463 1463 1462 1461 1461 1461
1531 1531 1531 1531 1531 1531 1531 1531 1531 1530 1530 1529 1528 1528 1527 1526 1525 1524 1523 1522 1521 1520 1519 1518 1517 1517 1516 1515 1514 1512 1511 1511 1510 1510 1509 1508 1507 1505 1504 1503 1502 1501 1500 1500 1499 1499 1498 1497 1496 1495 1494 1493 1492 1491 1489 1488 1486 1484 1483 1481 1480 1478 1477 1476 1474 1473 1472 1470 1469 1468 1467 1467 1466 1466 1466 1466 1466 1465 1465 1464 1464 1463 1463 1462 1462
1532 1532 1532 1532 1532 1532 1532 1532 1531 1531 1531 1530 1530 1529 1528 1527 1526 1525 1524 1523 1522 1521 1520 1519 1518 1518 1517 1516 1515 1514 1513 1512 1512 1511 1510 1509 1508 1507 1505 1504 1503 1502 1501 1501 1500 1500 1499 1498 1497 1496 1495 1494 1493 1492 1491 1490 1488 1486 1485 1483 1482 1481 1479 1478 1476 1475 1474 1472 1470 1469 1468 1467 1467 1467 1467 1467 1466 1466 1465 1465 1465 1464 1464 1463 1463
1532 1532 1532 1532 1533 1532 1533 1532 1532 1532 1532 1531 1531 1530 1529 1528 1527 1526 1525 1524 1523 1522 1521 1520 1519 1519 1518 1517 1516 1515 1514 1514 1513 1512 1512 1511 1509 1508 1507 1505 1504 1503 1502 1502 1501 1500 1499 1499 1498 1497 1496 1495 1494 1493 1492 1491 1490 1488 1487 1485 1484 1483 1481 1480 1478 1477 1476 1474 1472 1471 1469 1468 1468 1467 1468 1467 1467 1467 1466 1466 1466 1465 1465 1464 1464
1531 1532 1532 1533 1533 1533 1533 1533 1533 1533 1532 1532 1532 1531 1530 1529 1528 1527 1526 1525 1524 1523 1522 1521 1520 1519 1519 1518 1517 1516 1515 1515 1514 1514 1513 1512 1511 1509 1508 1506 1505 1504 1503 1502 1502 1501 1500 1500 1499 1498 1497 1496 1496 1495 1494 1493 1492 1490 1488 1487 1486 1484 1483 1481 1480 1479 1478 1476 1475 1473 1471 1470 1469 1468 1468 1468 1468 1467 1467 1467 1467 1466 1466 1465 1465
1531 1532 1532 1533 1533 1533 1534 1534 1533 1533 1533 1533 1532 1532 1531 1530 1529 1528 1527 1526 1525 1524 1523 1522 1521 1520 1520 1519 1518 1517 1516 1516 1515 1515 1514 1513 1512 1511 1510 1508 1507 1505 1504 1503 1503 1502 1501 1501 1500 1499 1498 1498 1497 1496 1495 1494 1493 1492 1490 1489 1487 1486 1485 1484 1483 1482 1480 1479 1478 1475 1473 1471 1470 1470 1470 1469 1469 1469 1468 1468 1468 1468 1468 1467 1466
1530 1531 1532 1533 1533 1533 1534 1534 1534 1534 1534 1533 1533 1532 1532 1531 1530 1529 1528 1527 1526 1525 1524 1523 1522 1521 1521 1520 1519 1518 1518 1517 1517 1516 1515 1514 1514 1512 1511 1510 1508 1507 1506 1505 1504 1503 1502 1502 1501 1500 1499 1499 1498 1497 1497 1495 1494 1493 1492 1490 1489 1488 1486 1486 1485 1484 1483 1482 1480 1478 1476 1474 1473 1472 1472 1472 1471 1471 1470 1470 1470 1469 1468 1468 1467
1529 1531 1532 1532 1533 1534 1534 1535 1535 1534 1534 1534 1534 1533 1532 1532 1531 1530 1529 1528 1527 1526 1525 1524 1523 1522 1522 1521 1520 1519 1519 1518 1518 1517 1516 1516 1515 1514 1512 1511 1510 1508 1507 1506 1505 1504 1504 1503 1502 1502 1501 1500 1499 1498 1498 1496 1495 1494 1493 1492 1491 1489 1488 1487 1487 1485 1485 1484 1483 1481 1479 1477 1476 1475 1474 1474 1473 1473 1472 1471 1470 1469 1468 1468 1467
1529 1530 1531 1532 1533 1534 1534 1535 1535 1535 1535 1535 1534 1534 1533 1533 1532 1531 1530 1529 1528 1527 1526 1525 1524 1523 1522 1522 1521 1520 1520 1519 1519 1518 1517 1517 1516 1515 1514 1512 1511 1510 1509 1508 1507 1506 1505 1504 1504 1503 1502 1501 1500 1499 1498 1497 1496 1495 1494 1493 1492 1491 1490 1489 1488 1487 1486 1486 1485 1483 1481 1480 1479 1477 1477 1476 1475 1474 1474 1473 1472 1470 1469 1468 1468
1528 1530 1531 1532 1533 1534 1535 1535 1535 1535 1535 1535 1535 1535 1534 1534 1533 1532 1531 1530 1529 1528 1527 1526 1525 1524 1523 1523 1522 1521 1521 1520 1520 1519 1518 1518 1517 1516 1515 1514 1512 1512 1511 1510 1509 1508 1507 1506 1505 1504 1503 1502 1501 1500 1499 1498 1497 1496 1495 1494 1492 1492 1491 1490 1489 1489 1488 1487 1486 1485 1483 1482 1481 1480 1479 1478 1477 1476 1476 1475 1474 1472 1470 1469 1468
1528 1529 1531 1532 1533 1534 1535 1535 1536 1536 1536 1536 1536 1535 1535 1535 1534 1533 1532 1531 1530 1529 1528 1527 1526 1525 1524 1524 1523 1523 1522 1521 1521 1520 1520 1519 1518 1517 1516 1515 1514 1513 1512 1511 1510 1509 1508 1507 1506 1505 1504 1503 1502 1501 1500 1499 1498 1497 1496 1495 1494 1493 1493 1492 1491 1490 1489 1489 1488 1487 1485 1484 1483 1482 1481 1480 1479 1479 1478 1477 1475 1474 1472 1470 1469
1527 1529 1530 1532 1533 1534 1535 1536 1536 1536 1537 1537 1536 1536 1536 1535 1535 1534 1533 1532 1531 1530 1529 1528 1527 1526 1525 1525 1524 1523 1523 1523 1522 1522 1521 1520 1519 1518 1517 1516 1515 1515 1513 1512 1511 1510 1509 1508 1507 1507 1506 1504 1503 1502 1501 1500 1499 1498 1497 1496 1496 1495 1494 1493 1492 1491 1491 1490 1489 1488 1487 1486 1485 1484 1483 1482 1482 1481 1480 1479 1477 1475 1473 1472 1471
1527 1528 1530 1531 1533 1534 1535 1536 1536 1537 1537 1537 1537 1536 1536 1536 1535 1534 1534 1533 1532 1531 1530 1529 1528 1527 1526 1525 1525 1524 1524 1524 1523 1522 1522 1521 1520 1519 1518 1518 1517 1516 1515 1513 1512 1511 1511 1510 1509 1508 1507 1506 1505 1504 1503 1502 1500 1499 1499 1498 1497 1496 1495 1494 1493 1493 1492 1491 1490 1489 1488 1487 1487 1486 1485 1484 1484 1484 1483 1481 1480 1478 1476 1474 1473
1526 1528 1530 1531 1532 1534 1535 1536 1537 1537 1537 1537 1537 1536 1536 1536 1536 1535 1534 1534 1533 1532 1530 1530 1529 1528 1527 1526 1526 1525 1525 1524 1524 1523 1523 1522 1521 1520 1519 1519 1518 1517 1516 1515 1514 1513 1512 1511 1511 1510 1508 1507 1506 1505 1504 1503 1502 1501 1501 1500 1499 1498 1496 1495 1495 1494 1493 1493 1492 1491 1490 1489 1488 1487 1486 1486 1486 1485 1485 1484 1482 1480 1478 1476 1475
1526 1527 1529 1531 1532 1533 1534 1535 1536 1537 1537 1537 1537 1537 1537 1536 1536 1536 1535 1535 1534 1533 1532 1531 1530 1529 1528 1527 1527 1526 1526 1525 1525 1524 1524 1523 1522 1521 1520 1520 1519 1518 1517 1516 1515 1514 1513 1513 1512 1511 1510 1508 1507 1506 1505 1504 1504 1503 1502 1501 1500 1499 1498 1497 1496 1495 1495 1494 1493 1493 1492 1491 1490 1489 1489 1489 1488 1487 1487 1486 1485 1482 1480 1479 1477
1525 1527 1529 1530 1531 1533 1533 1534 1535 1536 1536 1537 1537 1537 1537 1537 1537 1536 1536 1536 1535 1534 1533 1532 1531 1530 1529 1528 1528 1527 1527 1527 1526 1526 1525 1524 1523 1522 1521 1521 1520 1519 1518 1517 1517 1516 1515 1514 1513 1512 1511 1510 1509 1507 1506 1506 1505 1504 1503 1502 1501 1500 1499 1498 1497 1497 1496 1496 1495 1495 1494 1493 1492 1492 1491 1491 1490 1489 1488 1488 1486 1484 1482 1480 1479
1524 1526 1528 1529 1531 1532 1532 1534 1535 1536 1536 1537 1537 1537 1537 1537 1537 1537 1536 1536 1536 1535 1534 1533 1532 1531 1530 1529 1529 1528 1528 1528 1527 1527 1526 1525 1524 1524 1523 1522 1521 1520 1520 1519 1518 1517 1516 1515 1514 1513 1512 1511 1510 1509 1508 1507 1506 1505 1504 1503 1502 1501 1500 1499 1499 1498 1498 1497 1497 1496 1496 1495 1494 1494 1493 1492 1491 1490 1490 1489 1488 1486 1485 1483 1480
1524 1525 1527 1528 1529 1530 1532 1533 1534 1535 1536 1536 1537 1537 1538 1538 1538 1537 1537 1536 1536 1536 1535 1534 1533 1532 1531 1530 1530 1529 1529 1528 1528 1527 1527 1526 1526 1525 1524 1523 1523 1522 1521 1520 1519 1518 1518 1517 1516 1515 1514 1512 1511 1510 1509 1508 1507 1506 1506 1505 1504 1502 1502 1501 1500 1499 1499 1499 1498 1497 1497 1496 1496 1495 1494 1493 1493 1492 1492 1491 1489 1488 1487 1485 1483
1522 1524 1525 1526 1528 1529 1531 1533 1534 1535 1536 1536 1536 1537 1537 1538 1538 1538 1537 1537 1536 1536 1535 1535 1534 1533 1532 1532 1531 1530 1530 1529 1529 1528 1528 1527 1527 1526 1525 1525 1524 1523 1522 1521 1521 1520 1519 1518 1517 1516 1515 1514 1513 1512 1511 1510 1509 1508 1507 1506 1505 1505 1504 1503 1501 1501 1501 1500 1499 1498 1498 1497 1497 1496 1496 1495 1494 1494 1494 1493 1492 1490 1489 1487 1485
1521 1523 1524 1525 1527 1528 1530 1532 1533 1534 1535 1535 1536 1536 1537 1537 1538 1537 1537 1537 1537 1536 1536 1535 1535 1534 1533 1533 1532 1532 1531 1530 1530 1529 1529 1528 1528 1527 1527 1526 1525 1525 1524 1523 1523 1522 1521 1520 1519 1517 1516 1515 1514 1513 1512 1511 1510 1509 1508 1508 1507 1506 1505 1504 1503 1502 1502 1501 1500 1500 1499 1498 1498 1497 1497 1496 1496 1496 1495 1494 1493 1492 1491 1489 1488
1519 1520 1521 1523 1525 1527 1529 1530 1532 1533 1534 1535 1536 1536 1537 1537 1537 1537 1537 1537 1537 1537 1536 1536 1535 1535 1534 1534 1533 1533 1532 1531 1531 1531 1530 1530 1529 1529 1528 1528 1527 1526 1526 1525 1525 1523 1522 1521 1520 1519 1518 1517 1516 1515 1514 1513 1512 1511 1510 1509 1508 1507 1506 1505 1505 1504 1504 1502 1501 1501 1500 1499 1499 1498 1498 1497 1497 1497 1496 1495 1495 1494 1493 1491 1490
1518 1519 1520 1522 1524 1526 1528 1529 1531 1532 1533 1534 1535 1536 1537 1537 1537 1537 1537 1537 1537 1537 1537 1536 1536 1535 1535 1535 1534 1534 1533 1533 1532 1532 1531 1531 1531 1530 1530 1529 1529 1528 1528 1527 1526 1525 1524 1523 1522 1520 1520 1519 1517 1516 1516 1514 1513 1513 1512 1511 1510 1508 1508 1507 1506 1506 1505 1504 1503 1502 1501 1500 1500 1499 1499 1498 1498 1497 1497 1496 1496 1495 1494 1494 1493
1516 1517 1519 1520 1522 1524 1526 1528 1530 1531 1533 1534 1535 1536 1536 1537 1537 1537 1537 1537 1537 1537 1537 1536 1536 1536 1536 1536 1535 1535 1534 1534 1534 1534 1533 1533 1532 1532 1531 1531 1530 1530 1530 1529 1527 1526 1525 1525 1523 1522 1521 1520 1519 1518 1517 1516 1515 1514 1513 1512 1511 1510 1509 1508 1507 1507 1506 1505 1504 1503 1502 1502 1501 1500 1500 1499 1499 1498 1497 1497 1497 1497 1496 1495 1495
1515 1516 1517 1519 1521 1523 1525 1527 1529 1531 1532 1534 1535 1535 1536 1537 1537 1538 1537 1537 1537 1537 1536 1537 1537 1537 1537 1536 1536 1536 1536 1535 1535 1535 1534 1534 1534 1534 1533 1533 1532 1532 1531 1530 1529 1528 1527 1526 1525 1524 1523 1522 1521 1520 1519 1518 1517 1516 1514 1513 1513 1512 1511 1510 1509 1508 1507 1506 1505 1504 1503 1503 1502 1501 1501 1500 1500 1499 1498 1498 1498 1497 1497 1497 1496
1513 1515 1516 1518 1520 1522 1524 1526 1528 1530 1531 1533 1534 1535 1536 1536 1537 1537 1537 1537 1537 1536 1536 1536 1537 1537 1537 1537 1537 1537 1537 1536 1536 1536 1536 1536 1536 1535 1535 1535 1534 1533 1532 1531 1530 1529 1528 1528 1527 1526 1525 1524 1523 1522 1521 1520 1519 1518 1517 1516 1515 1514 1513 1512 1511 1510 1509 1508 1507 1506 1505 1504 1503 1502 1502 1501 1501 1500 1499 1498 1498 1498 1498 1498 1497
1512 1514 1515 1517 1519 1521 1523 1526 1528 1529 1531 1532 1533 1534 1535 1536 1536 1537 1537 1537 1537 1536 1536 1537 1537 1537 1538 1538 1538 1538 1538 1538 1538 1538 1538 1537 1537 1537 1537 1537 1536 1535 1534 1533 1532 1531 1530 1529 1528 1527 1527 1526 1525 1524 1523 1522 1521 1520 1519 1518 1517 1516 1514 1513 1512 1511 1510 1509 1508 1507 1506 1506 1504 1504 1503 1502 1501 1501 1500 1500 1499 1499 1498 1499 1498
1511 1513 1514 1516 1518 1520 1523 1525 1527 1529 1531 1532 1533 1533 1534 1535 1535 1536 1536 1536 1536 1536 1537 1537 1537 1537 1538 1538 1538 1538 1538 1539 1539 1539 1539 1539 1539 1539 1539 1538 1537 1536 1535 1534 1533 1533 1532 1531 1530 1529 1528 1527 1527 1526 1524 1523 1522 1521 1520 1520 1518 1517 1516 1515 1514 1513 1512 1511 1510 1509 1508 1507 1506 1505 1504 1503 1502 1502 1501 1501 1500 1500 1500 1499 1499
1512 1513 1514 1516 1518 1520 1522 1524 1526 1528 1529 1530 1531 1532 1533 1533 1534 1535 1535 1536 1536 1536 1536 1536 1537 1537 1538 1538 1538 1539 1539 1539 1540 1540 1540 1540 1540 1540 1540 1539 1538 1538 1537 1536 1535 1535 1534 1533 1532 1531 1530 1529 1528 1527 1526 1525 1524 1523 1522 1521 1520 1519 1518 1517 1516 1515 1513 1512 1511 1510 1509 1509 1508 1507 1506 1505 1503 1503 1502 1502 1501 1501 1501 1501 1500
1511 1512 1514 1516 1517 1519 1521 1523 1525 1527 1528 1529 1530 1530 1531 1532 1533 1534 1534 1535 1535 1535 1536 1536 1536 1537 1537 1538 1538 1539 1539 1540 1540 1540 1541 1541 1541 1541 1540 1540 1539 1539 1538 1537 1537 1536 1535 1534 1534 1533 1532 1531 1530 1529 1528 1527 1526 1525 1524 1523 1522 1521 1520 1519 1518 1517 1515 1514 1513 1512 1511 1510 1509 1509 1508 1506 1505 1504 1504 1503 1502 1502 1502 1501 1501
1510 1511 1513 1515 1517 1519 1521 1522 1524 1525 1526 1527 1528 1529 1530 1531 1532 1533 1534 1534 1534 1535 1535 1536 1536 1537 1537 1538 1538 1539 1539 1540 1541 1541 1541 1541 1541 1541 1541 1541 1540 1540 1539 1539 1538 1538 1537 1536 1535 1534 1534 1533 1532 1531 1530 1529 1528 1527 1526 1525 1524 1523 1522 1520 1520 1518 1517 1516 1515 1514 1513 1512 1511 1510 1509 1508 1507 1506 1505 1504 1504 1503 1502 1502 1502
1509 1510 1511 1513 1516 1518 1520 1521 1523 1524 1526 1527 1527 1528 1529 1530 1531 1532 1533 1533 1534 1535 1535 1536 1536 1537 1537 1538 1538 1539 1539 1540 1541 1541 1541 1541 1542 1542 1542 1541 1541 1541 1541 1540 1540 1539 1538 1538 1537 1536 1535 1534 1534 1533 1532 1531 1530 1529 1528 1527 1525 1524 1523 1522 1521 1520 1519 1518 1517 1516 1514 1514 1513 1512 1511 1509 1508 1507 1506 1506 1505 1504 1504 1503 1503
1508 1509 1510 1512 1514 1516 1518 1520 1521 1523 1525 1526 1526 1527 1528 1529 1530 1531 1532 1533 1534 1534 1535 1536 1536 1537 1537 1538 1538 1538 1539 1540 1541 1541 1541 1541 1542 1542 1542 1542 1542 1542 1541 1541 1541 1540 1540 1539 1538 1537 1536 1536 1535 1534 1533 1532 1531 1530 1529 1528 1527 1526 1525 1524 1523 1523 1521 1520 1519 1517 1516 1516 1514 1513 1512 1511 1510 1509 1508 1507 1507 1506 1505 1505 1504
1505 1507 1508 1510 1512 1514 1516 1518 1520 1522 1523 1524 1525 1527 1527 1528 1529 1530 1531 1532 1533 1533 1534 1535 1536 1536 1537 1537 1537 1538 1539 1540 1540 1540 1541 1541 1542 1542 1542 1542 1542 1542 1542 1541 1541 1541 1540 1540 1539 1538 1538 1537 1536 1536 1535 1534 1533 1532 1531 1530 1529 1528 1527 1526 1526 1525 1524 1522 1521 1520 1519 1518 1517 1515 1514 1514 1512 1511 1510 1509 1508 1507 1506 1506 1505
1503 1505 1507 1509 1511 1513 1516 1517 1519 1520 1522 1523 1525 1526 1526 1527 1528 1529 1530 1531 1532 1533 1534 1535 1535 1536 1536 1536 1537 1537 1538 1539 1540 1540 1541 1541 1541 1541 1542 1542 1542 1542 1542 1542 1541 1541 1541 1540 1540 1540 1539 1538 1538 1537 1536 1535 1534 1534 1533 1532 1531 1530 1529 1528 1528 1527 1526 1525 1523 1522 1521 1520 1519 1518 1517 1516 1515 1513 1512 1511 1510 1509 1508 1507 1507
1501 1503 1505 1507 1509 1511 1514 1516 1518 1520 1521 1522 1523 1524 1525 1526 1527 1528 1529 1530 1531 1532 1533 1534 1535 1535 1536 1536 1536 1537 1538 1538 1539 1540 1540 1541 1541 1541 1542 1542 1542 1542 1542 1542 1542 1542 1542 1541 1541 1540 1540 1539 1539 1538 1537 1537 1536 1535 1534 1534 1533 1532 1531 1530 1529 1528 1528 1527 1526 1524 1523 1522 1521 1520 1519 1518 1517 1516 1514 1513 1512 1511 1510 1509 1508
1498 1501 1503 1505 1507 1509 1512 1514 1516 1518 1518 1519 1520 1522 1523 1524 1525 1526 1528 1529 1530 1531 1532 1533 1534 1535 1535 1535 1536 1537 1537 1538 1539 1539 1540 1541 1541 1541 1541 1542 1542 1542 1542 1542 1542 1542 1542 1542 1541 1541 1541 1540 1540 1539 1539 1538 1537 1537 1536 1535 1534 1533 1532 1531 1531 1530 1530 1529 1528 1526 1525 1524 1523 1522 1521 1520 1519 1518 1516 1515 1514 1513 1512 1511 1510
1496 1499 1501 1503 1505 1508 1511 1513 1514 1515 1516 1517 1518 1520 1521 1523 1524 1525 1526 1528 1529 1530 1531 1532 1533 1534 1534 1535 1535 1536 1537 1538 1538 1539 1540 1540 1541 1541 1541 1541 1541 1542 1542 1542 1542 1542 1542 1542 1542 1541 1541 1541 1540 1540 1540 1539 1538 1538 1537 1536 1536 1535 1534 1533 1533 1532 1531 1531 1530 1529 1527 1526 1525 1524 1523 1522 1521 1520 1519 1517 1516 1515 1514 1513 1512
1494 1497 1500 1502 1504 1506 1509 1511 1512 1513 1514 1515 1516 1518 1520 1521 1522 1523 1525 1526 1527 1528 1530 1531 1532 1533 1533 1534 1535 1536 1537 1537 1538 1539 1540 1540 1540 1541 1541 1541 1541 1542 1542 1542 1542 1542 1542 1542 1542 1542 1542 1541 1541 1541 1540 1540 1539 1539 1538 1537 1537 1536 1536 1535 1534 1534 1533 1532 1531 1531 1530 1528 1527 1527 1526 1524 1523 1522 1521 1520 1519 1517 1516 1515 1514
1492 1495 1498 1500 1502 1504 1506 1508 1510 1511 1512 1513 1515 1517 1518 1520 1521 1522 1523 1524 1526 1527 1528 1529 1530 1531 1532 1533 1534 1535 1536 1537 1537 1538 1539 1540 1540 1540 1541 1541 1541 1542 1542 1542 1542 1542 1542 1542 1542 1542 1542 1542 1542 1541 1541 1540 1540 1539 1539 1539 1538 1537 1537 1536 1536 1535 1535 1534 1533 1532 1531 1530 1529 1529 1528 1527 1526 1525 1524 1522 1521 1520 1519 1518 1517
1491 1494 1496 1498 1501 1502 1504 1507 1508 1510 1511 1512 1514 1515 1517 1518 1520 1521 1522 1523 1524 1525 1526 1528 1529 1530 1531 1532 1533 1534 1535 1536 1537 1537 1538 1539 1539 1540 1540 1541 1541 1542 1542 1542 1542 1542 1542 1542 1542 1542 1542 1542 1542 1542 1541 1541 1540 1540 1540 1539 1539 1538 1538 1537 1537 1536 1536 1535 1534 1534 1533 1532 1531 1530 1529 1529 1528 1527 1526 1525 1524 1523 1522 1521 1520
1490 1493 1495 1497 1499 1501 1503 1505 1507 1508 1509 1510 1512 1514 1515 1517 1518 1519 1520 1521 1522 1523 1525 1526 1528 1529 1530 1531 1532 1533 1533 1534 1536 1537 1537 1538 1539 1539 1540 1541 1541 1541 1542 1542 1542 1542 1542 1541 1541 1542 1542 1542 1542 1542 1542 1542 1541 1541 1540 1540 1540 1539 1539 1539 1538 1537 1537 1536 1536 1535 1534 1534 1533 1532 1531 1530 1530 1529 1528 1527 1526 1525 1524 1523 1522